Regional Weather Roundup
Issued by NWS

Home | Current Version | Previous Version | Graphics & Text | Print | Product List | Glossary On
Versions: 1 2 3 4 5 6 7 8 9 10 11 12 13 14 15 16 17 18 19 20 21 22 23 24 25 26 27 28 29 30 31 32 33 34 35 36 37 38 39 40 41 42 43 44 45 46 47 48 49 50
000
ASUS43 KOAX 240202
RWRNE

WEATHER ROUNDUP FOR NEBRASKA
NATIONAL WEATHER SERVICE OMAHA NE
900 PM CDT WED AUG 23 2017

NOTES: SATELLITE DATA IS BEING USED TO AUGMENT CLOUD COVER ABOVE
       12000 FEET.
       "FAIR" INDICATES FEW OR NO CLOUDS BELOW 12,000 FEET WITH NO
       SIGNIFICANT WEATHER AND/OR OBSTRUCTIONS TO VISIBILITY.


NEZ001>004-019>022-054>056-240300-
NEBRASKA PANHANDLE

CITY           SKY/WX    TMP DP  RH WIND       PRES   REMARKS
SCOTTSBLUFF    CLOUDY    76  49  38 N9        30.02S
ALLIANCE       CLOUDY    72  49  44 S12       29.98F
CHADRON        MOCLDY    81  53  37 NW7       29.94R THUNDER
GORDON         MOCLDY    76  59  55 NE3       29.97R
SIDNEY         MOCLDY    71  56  58 NW12      30.06R
$$

NEZ057>060-069>072-079>082-240300-
SOUTHWEST NEBRASKA

CITY           SKY/WX    TMP DP  RH WIND       PRES   REMARKS
NORTH PLATTE   CLEAR     71  56  58 SE7       30.00R
IMPERIAL       CLEAR     75  59  57 SE12      30.00R
LEXINGTON      CLEAR     71  54  54 SE7       30.01S
MCCOOK         CLEAR     74  50  42 SE8       30.00S
OGALLALA       PTCLDY    75  63  65 E3        30.00R
$$

NEZ005>010-023>029-035>040-094-240300-
NORTH CENTRAL NEBRASKA

CITY           SKY/WX    TMP DP  RH WIND       PRES   REMARKS
VALENTINE      PTCLDY    81  59  47 S14       29.92R
AINSWORTH      PTCLDY    72  60  64 S8        29.95S
BROKEN BOW     CLEAR     73  53  49 S8        30.01R
O`NEILL        CLEAR     71  59  66 S10G16    29.97F
ORD            CLEAR     70  55  59 S5        29.99R
THEDFORD       MOCLDY    77  58  52 S10       29.99S
$$

NEZ041-046>049-061>064-073>077-083>087-240300-
SOUTH CENTRAL NEBRASKA

CITY           SKY/WX    TMP DP  RH WIND       PRES   REMARKS
GRAND ISLAND   FAIR      68  59  73 S7        30.02R
AURORA         FAIR      68  60  75 S7        30.02R
HASTINGS       FAIR      71  53  52 S8        30.04R
HEBRON         FAIR      69  56  63 S5        30.03S
HOLDREGE       FAIR      65  55  69 SE7       30.02R
KEARNEY        FAIR      68  56  65 SE8       30.03R
YORK           FAIR      70  61  73 S7        30.03R
$$

NEZ011>018-030>034-042>045-240300-
NORTHEAST NEBRASKA

CITY           SKY/WX    TMP DP  RH WIND       PRES   REMARKS
NORFOLK        FAIR      67  60  78 SE5       30.00R
ALBION         FAIR      66  62  86 CALM      30.01R
BLAIR          FAIR      69  59  70 SE5       30.03S
COLUMBUS       FAIR      67  61  81 SE7       30.02S
FREMONT        FAIR      70  58  67 SE8       30.02S
TEKAMAH        FAIR      66  61  84 SE7       30.01S
WAYNE          FAIR      65  62  91 S5        30.00R
$$

NEZ050>053-065>068-078-088>093-240300-
SOUTHEAST NEBRASKA

CITY           SKY/WX    TMP DP  RH WIND       PRES   REMARKS
LINCOLN        FAIR      72  58  61 SE8       30.03R
OMAHA EPPLEY   FAIR      72  57  59 SE12      30.03S
BEATRICE       FAIR      72  58  61 S7        30.03R
FALLS CITY     FAIR      68  59  73 SE5       30.03F
NEBRASKA CITY  FAIR      67  61  81 S5        30.04S
PLATTSMOUTH    FAIR      67  58  73 SE5       30.04S
$$

NEZ044-045-051>053-067-240300-
OMAHA AREA

CITY           SKY/WX    TMP DP  RH WIND       PRES   REMARKS
OMAHA EPPLEY   FAIR      72  57  59 SE12      30.03S
BLAIR          FAIR      69  59  70 SE5       30.03S
FREMONT        FAIR      70  58  67 SE8       30.02S
MILLARD        FAIR      71  61  70 SE6       30.03R
OFFUTT AFB     FAIR      66  59  77 E5        30.02S
PLATTSMOUTH    FAIR      67  58  73 SE5       30.04S
WAHOO          FAIR      65  61  87 SE7       30.02S
$$



USA.gov is the U.S. government's official web portal to all federal, state and local government web resources and services.